| time (UTC) | temp C | wind direction | speed KPH | gust KPH | rain 1hr cm | rain 24hr cm | rain mn cm | humidity % | barometer mb |
| 20260507224018 | 8 | 29 | 0.0 | 0.0 | 0.00 | 0.66 | 0.00 | 88 | 1013.6 |
| 20260507223007 | 8 | 29 | 0.0 | 0.0 | 0.00 | 0.66 | 0.00 | 88 | 1013.6 |
| 20260507222518 | 8 | 29 | 0.0 | 0.0 | 0.00 | 0.66 | 0.00 | 88 | 1013.6 |
| 20260507222018 | 8 | 29 | 0.0 | 0.0 | 0.00 | 0.66 | 0.00 | 88 | 1013.7 |
| 20260507221518 | 8 | 29 | 0.0 | 0.0 | 0.00 | 0.66 | 0.00 | 88 | 1013.5 |
| 20260507221018 | 8 | 29 | 0.0 | 0.0 | 0.00 | 0.66 | 0.00 | 88 | 1013.6 |
| 20260507220519 | 8 | 29 | 0.0 | 0.0 | 0.00 | 0.66 | 0.00 | 88 | 1013.6 |
| 20260507220019 | 8 | 29 | 0.0 | 0.0 | 0.00 | 0.66 | 0.00 | 88 | 1013.6 |
| 20260507215518 | 8 | 29 | 0.0 | 0.0 | 0.00 | 0.66 | 0.66 | 88 | 1013.6 |
| 20260507215018 | 8 | 29 | 0.0 | 0.0 | 0.00 | 0.66 | 0.66 | 89 | 1013.6 |
| 20260507214507 | 8 | 29 | 0.0 | 0.0 | 0.00 | 0.66 | 0.66 | 88 | 1013.6 |
| 20260507214018 | 8 | 29 | 0.0 | 0.0 | 0.00 | 0.66 | 0.66 | 88 | 1013.4 |
| 20260507213518 | 8 | 29 | 0.0 | 0.0 | 0.00 | 0.66 | 0.66 | 88 | 1013.4 |
| 20260507212518 | 9 | 0 | 0.0 | 0.0 | 0.00 | 0.66 | 0.66 | 88 | 1013.4 |
| 20260507212018 | 9 | 0 | 0.0 | 0.0 | 0.00 | 0.66 | 0.66 | 88 | 1013.3 |
| 20260507211519 | 8 | 0 | 0.0 | 0.0 | 0.00 | 0.66 | 0.66 | 87 | 1013.3 |
| 20260507210519 | 9 | 0 | 0.0 | 0.0 | 0.00 | 0.66 | 0.66 | 85 | 1013.3 |
| 20260507210018 | 9 | 0 | 0.0 | 0.0 | 0.00 | 0.66 | 0.66 | 85 | 1013.2 |
| 20260507205517 | 9 | 0 | 0.0 | 0.0 | 0.00 | 0.66 | 0.66 | 85 | 1012.9 |
| 20260507205007 | 9 | 0 | 0.0 | 0.0 | 0.00 | 0.66 | 0.66 | 85 | 1012.8 |
| 20260507204518 | 9 | 0 | 0.0 | 0.0 | 0.00 | 0.66 | 0.66 | 85 | 1012.7 |
| 20260507204007 | 9 | 349 | 0.0 | 0.0 | 0.00 | 0.66 | 0.66 | 83 | 1012.6 |
| 20260507203518 | 10 | 349 | 0.0 | 0.0 | 0.00 | 0.66 | 0.66 | 82 | 1012.5 |
| 20260507203018 | 10 | 349 | 0.0 | 0.0 | 0.00 | 0.66 | 0.66 | 81 | 1012.5 |
| 20260507202518 | 11 | 105 | 0.0 | 0.0 | 0.00 | 0.66 | 0.66 | 83 | 1012.3 |
| 20260507201518 | 11 | 175 | 3.2 | 8.0 | 0.00 | 0.66 | 0.66 | 84 | 1012.2 |
| 20260507201018 | 10 | 69 | 3.2 | 4.8 | 0.00 | 0.66 | 0.66 | 84 | 1012.2 |
| 20260507200519 | 10 | 5 | 0.0 | 0.0 | 0.00 | 0.66 | 0.66 | 83 | 1012.3 |
| 20260507195507 | 11 | 5 | 0.0 | 0.0 | 0.00 | 0.66 | 0.66 | 81 | 1012.1 |
| 20260507195018 | 11 | 5 | 0.0 | 0.0 | 0.00 | 0.66 | 0.66 | 80 | 1012.0 |
| 20260507194018 | 11 | 5 | 0.0 | 0.0 | 0.00 | 0.66 | 0.66 | 82 | 1011.9 |
| 20260507193018 | 11 | 350 | 0.0 | 0.0 | 0.00 | 0.66 | 0.66 | 80 | 1011.6 |
| 20260507192506 | 11 | 350 | 0.0 | 4.8 | 0.00 | 0.66 | 0.66 | 81 | 1011.6 |
| 20260507192018 | 11 | 353 | 4.8 | 8.0 | 0.00 | 0.66 | 0.66 | 82 | 1011.4 |
| 20260507191018 | 11 | 341 | 4.8 | 8.0 | 0.00 | 0.66 | 0.66 | 80 | 1011.2 |
| 20260507190518 | 11 | 340 | 6.4 | 8.0 | 0.00 | 0.66 | 0.66 | 80 | 1011.2 |
| 20260507190008 | 11 | 340 | 8.0 | 8.0 | 0.00 | 0.66 | 0.66 | 79 | 1011.0 |
| 20260507185518 | 12 | 341 | 4.8 | 8.0 | 0.00 | 0.66 | 0.66 | 78 | 1011.1 |
| 20260507184519 | 12 | 357 | 4.8 | 8.0 | 0.00 | 0.66 | 0.66 | 77 | 1010.8 |
| 20260507183018 | 13 | 3 | 4.8 | 4.8 | 0.00 | 0.66 | 0.66 | 73 | 1010.7 |
| 20260507182507 | 13 | 5 | 3.2 | 4.8 | 0.00 | 0.66 | 0.66 | 74 | 1010.7 |
| 20260507182018 | 13 | 5 | 3.2 | 8.0 | 0.00 | 0.66 | 0.66 | 72 | 1010.6 |
| 20260507181518 | 13 | 355 | 4.8 | 8.0 | 0.00 | 0.66 | 0.66 | 72 | 1010.5 |
| 20260507181017 | 13 | 331 | 3.2 | 4.8 | 0.00 | 0.66 | 0.66 | 72 | 1010.5 |
| 20260507180517 | 13 | 317 | 4.8 | 4.8 | 0.00 | 0.66 | 0.66 | 69 | 1010.6 |
| 20260507180018 | 13 | 317 | 4.8 | 8.0 | 0.00 | 0.66 | 0.66 | 69 | 1010.7 |
| 20260507175518 | 13 | 317 | 4.8 | 11.3 | 0.00 | 0.66 | 0.66 | 70 | 1010.7 |
| 20260507175018 | 13 | 304 | 3.2 | 12.9 | 0.00 | 0.66 | 0.66 | 70 | 1010.7 |
| 20260507174518 | 13 | 316 | 11.3 | 19.3 | 0.00 | 0.66 | 0.66 | 72 | 1010.7 |
| 20260507174018 | 13 | 314 | 11.3 | 19.3 | 0.00 | 0.66 | 0.66 | 71 | 1010.7 |
| 20260507173518 | 13 | 308 | 9.7 | 19.3 | 0.00 | 0.66 | 0.66 | 71 | 1010.6 |
| 20260507173018 | 13 | 301 | 14.5 | 19.3 | 0.00 | 0.66 | 0.66 | 72 | 1010.6 |
| 20260507172517 | 12 | 320 | 8.0 | 12.9 | 0.00 | 0.66 | 0.66 | 72 | 1010.4 |
| 20260507172017 | 12 | 286 | 11.3 | 19.3 | 0.00 | 0.66 | 0.66 | 76 | 1010.3 |
| 20260507171517 | 12 | 314 | 8.0 | 19.3 | 0.00 | 0.66 | 0.66 | 76 | 1010.3 |
| 20260507171018 | 11 | 135 | 1.6 | 14.5 | 0.00 | 0.66 | 0.66 | 75 | 1010.1 |
| 20260507165517 | 11 | 89 | 6.4 | 19.3 | 0.03 | 0.66 | 0.66 | 76 | 1010.3 |
| 20260507164517 | 11 | 98 | 8.0 | 14.5 | 0.05 | 0.66 | 0.66 | 75 | 1010.3 |
| 20260507164017 | 11 | 96 | 9.7 | 16.1 | 0.05 | 0.66 | 0.66 | 77 | 1010.5 |
| 20260507163517 | 11 | 128 | 8.0 | 20.9 | 0.13 | 0.66 | 0.66 | 78 | 1010.5 |
| 20260507163018 | 11 | 99 | 11.3 | 19.3 | 0.15 | 0.66 | 0.66 | 79 | 1010.5 |
| 20260507162517 | 11 | 96 | 9.7 | 16.1 | 0.15 | 0.66 | 0.66 | 80 | 1010.7 |
| 20260507162017 | 11 | 102 | 8.0 | 14.5 | 0.15 | 0.66 | 0.66 | 82 | 1010.7 |
| 20260507161518 | 11 | 104 | 8.0 | 16.1 | 0.18 | 0.66 | 0.66 | 82 | 1010.8 |
| 20260507161017 | 11 | 120 | 8.0 | 12.9 | 0.18 | 0.66 | 0.66 | 82 | 1010.8 |
| 20260507160518 | 11 | 93 | 8.0 | 12.9 | 0.18 | 0.66 | 0.66 | 84 | 1010.9 |
| 20260507160018 | 11 | 106 | 4.8 | 11.3 | 0.18 | 0.66 | 0.66 | 82 | 1011.2 |
| 20260507155517 | 10 | 136 | 3.2 | 4.8 | 0.15 | 0.64 | 0.64 | 83 | 1011.3 |
| 20260507155018 | 10 | 292 | 6.4 | 12.9 | 0.15 | 0.64 | 0.64 | 83 | 1011.4 |
| 20260507154518 | 10 | 307 | 9.7 | 14.5 | 0.15 | 0.61 | 0.61 | 83 | 1011.3 |
| 20260507153518 | 11 | 284 | 9.7 | 16.1 | 0.08 | 0.53 | 0.53 | 81 | 1011.4 |
| 20260507152506 | 11 | 311 | 8.0 | 14.5 | 0.10 | 0.51 | 0.51 | 78 | 1011.2 |
| 20260507152017 | 11 | 285 | 9.7 | 19.3 | 0.10 | 0.51 | 0.51 | 76 | 1011.2 |
| 20260507151517 | 11 | 281 | 4.8 | 19.3 | 0.08 | 0.48 | 0.48 | 76 | 1011.3 |
| 20260507151017 | 11 | 325 | 11.3 | 19.3 | 0.08 | 0.48 | 0.48 | 77 | 1011.4 |
| 20260507150518 | 11 | 1 | 11.3 | 19.3 | 0.08 | 0.48 | 0.48 | 83 | 1011.4 |
| 20260507145517 | 11 | 28 | 11.3 | 16.1 | 0.10 | 0.48 | 0.48 | 80 | 1011.3 |
| 20260507145017 | 11 | 349 | 9.7 | 14.5 | 0.10 | 0.48 | 0.48 | 80 | 1011.4 |
| 20260507144517 | 11 | 348 | 11.3 | 16.1 | 0.15 | 0.48 | 0.48 | 79 | 1011.3 |
| 20260507144017 | 11 | 351 | 8.0 | 12.9 | 0.30 | 0.48 | 0.48 | 78 | 1011.4 |
| 20260507143018 | 11 | 336 | 8.0 | 12.9 | 0.41 | 0.46 | 0.46 | 81 | 1011.4 |
| 20260507142517 | 11 | 350 | 4.8 | 8.0 | 0.41 | 0.43 | 0.43 | 79 | 1011.2 |
| 20260507141517 | 11 | 60 | 4.8 | 16.1 | 0.41 | 0.41 | 0.41 | 77 | 1011.1 |
| 20260507141017 | 11 | 90 | 9.7 | 19.3 | 0.41 | 0.41 | 0.41 | 77 | 1011.0 |
| 20260507140518 | 11 | 99 | 11.3 | 16.1 | 0.41 | 0.41 | 0.41 | 75 | 1011.2 |
| 20260507140018 | 11 | 122 | 11.3 | 19.3 | 0.41 | 0.41 | 0.41 | 73 | 1011.3 |
| 20260507135517 | 11 | 132 | 6.4 | 19.3 | 0.38 | 0.38 | 0.38 | 72 | 1011.2 |
| 20260507135017 | 11 | 122 | 3.2 | 14.5 | 0.38 | 0.38 | 0.38 | 73 | 1011.4 |
| 20260507134518 | 12 | 155 | 8.0 | 35.4 | 0.33 | 0.33 | 0.33 | 70 | 1011.4 |
| 20260507134017 | 12 | 188 | 22.5 | 41.8 | 0.18 | 0.18 | 0.18 | 71 | 1011.6 |
| 20260507133517 | 11 | 167 | 9.7 | 24.1 | 0.13 | 0.13 | 0.13 | 75 | 1011.5 |
| 20260507133018 | 11 | 163 | 11.3 | 29.0 | 0.05 | 0.05 | 0.05 | 79 | 1011.6 |
| 20260507132517 | 12 | 173 | 16.1 | 29.0 | 0.03 | 0.03 | 0.03 | 76 | 1011.4 |
| 20260507132017 | 12 | 166 | 17.7 | 32.2 | 0.03 | 0.03 | 0.03 | 73 | 1011.3 |
| 20260507131517 | 12 | 160 | 14.5 | 27.4 | 0.00 | 0.00 | 0.00 | 75 | 1011.2 |
| 20260507130517 | 12 | 174 | 16.1 | 27.4 | 0.00 | 0.00 | 0.00 | 75 | 1011.1 |
| 20260507130027 | 12 | 170 | 11.3 | 27.4 | 0.00 | 0.00 | 0.00 | 75 | 1011.0 |
| 20260507125517 | 12 | 158 | 14.5 | 25.7 | 0.00 | 0.00 | 0.00 | 75 | 1010.7 |
| 20260507124518 | 12 | 149 | 17.7 | 32.2 | 0.00 | 0.00 | 0.00 | 76 | 1010.4 |
| 20260507123517 | 13 | 159 | 16.1 | 32.2 | 0.00 | 0.00 | 0.00 | 75 | 1010.7 |
| 20260507123017 | 13 | 145 | 16.1 | 27.4 | 0.00 | 0.00 | 0.00 | 75 | 1010.7 |
| 20260507122517 | 13 | 150 | 8.0 | 20.9 | 0.00 | 0.00 | 0.00 | 75 | 1010.8 |
| 20260507122017 | 13 | 166 | 16.1 | 32.2 | 0.00 | 0.00 | 0.00 | 72 | 1010.6 |
| 20260507121517 | 14 | 153 | 14.5 | 32.2 | 0.00 | 0.00 | 0.00 | 67 | 1010.5 |
| 20260507121017 | 15 | 154 | 16.1 | 25.7 | 0.00 | 0.00 | 0.00 | 62 | 1010.5 |
| 20260507120517 | 16 | 176 | 8.0 | 14.5 | 0.00 | 0.00 | 0.00 | 61 | 1010.3 |
| 20260507120017 | 16 | 169 | 4.8 | 9.7 | 0.00 | 0.00 | 0.00 | 61 | 1010.5 |
| 20260507115517 | 16 | 243 | 4.8 | 9.7 | 0.00 | 0.00 | 0.00 | 61 | 1010.3 |
| 20260507115017 | 16 | 162 | 1.6 | 4.8 | 0.00 | 0.00 | 0.00 | 61 | 1010.1 |
| 20260507114518 | 16 | 206 | 1.6 | 11.3 | 0.00 | 0.00 | 0.00 | 61 | 1010.1 |
| 20260507114017 | 16 | 185 | 4.8 | 16.1 | 0.00 | 0.00 | 0.00 | 60 | 1010.1 |
| 20260507113518 | 16 | 225 | 3.2 | 4.8 | 0.00 | 0.00 | 0.00 | 61 | 1010.2 |
| 20260507113018 | 16 | 17 | 3.2 | 4.8 | 0.00 | 0.00 | 0.00 | 62 | 1010.5 |
| 20260507112517 | 16 | 33 | 0.0 | 8.0 | 0.00 | 0.00 | 0.00 | 62 | 1010.6 |
| 20260507112017 | 16 | 5 | 3.2 | 4.8 | 0.00 | 0.00 | 0.00 | 63 | 1010.6 |
| 20260507111507 | 15 | 286 | 6.4 | 9.7 | 0.00 | 0.00 | 0.00 | 64 | 1010.7 |
| 20260507111017 | 15 | 278 | 6.4 | 9.7 | 0.00 | 0.00 | 0.00 | 64 | 1010.8 |
| 20260507110517 | 15 | 321 | 6.4 | 12.9 | 0.00 | 0.00 | 0.00 | 65 | 1010.9 |
| 20260507110018 | 15 | 300 | 6.4 | 12.9 | 0.00 | 0.00 | 0.00 | 64 | 1010.8 |
| 20260507105517 | 16 | 307 | 4.8 | 11.3 | 0.00 | 0.00 | 0.00 | 64 | 1010.9 |
| 20260507105017 | 16 | 325 | 1.6 | 8.0 | 0.00 | 0.00 | 0.00 | 63 | 1011.0 |
| 20260507104517 | 16 | 232 | 0.0 | 3.2 | 0.00 | 0.00 | 0.00 | 64 | 1011.1 |
| 20260507103517 | 15 | 184 | 3.2 | 12.9 | 0.00 | 0.00 | 0.00 | 63 | 1011.3 |
| 20260507103018 | 15 | 185 | 1.6 | 11.3 | 0.00 | 0.00 | 0.00 | 64 | 1011.3 |
| 20260507102521 | 15 | 212 | 4.8 | 12.9 | 0.00 | 0.00 | 0.00 | 64 | 1011.3 |
| 20260507101019 | 15 | 177 | 3.2 | 9.7 | 0.00 | 0.00 | 0.00 | 66 | 1011.3 |
| 20260507100519 | 14 | 132 | 8.0 | 12.9 | 0.00 | 0.00 | 0.00 | 66 | 1011.3 |
| 20260507095519 | 15 | 5 | 3.2 | 8.0 | 0.00 | 0.00 | 0.00 | 66 | 1011.3 |
| 20260507095018 | 15 | 65 | 8.0 | 11.3 | 0.00 | 0.00 | 0.00 | 66 | 1011.5 |
| 20260507094519 | 15 | 76 | 6.4 | 14.5 | 0.00 | 0.00 | 0.00 | 66 | 1011.6 |
| 20260507094019 | 15 | 48 | 0.0 | 8.0 | 0.00 | 0.00 | 0.00 | 67 | 1011.6 |
| 20260507093519 | 14 | 16 | 3.2 | 11.3 | 0.00 | 0.00 | 0.00 | 68 | 1011.6 |
| 20260507093019 | 14 | 77 | 3.2 | 12.9 | 0.00 | 0.00 | 0.00 | 68 | 1011.6 |
| 20260507092519 | 14 | 70 | 3.2 | 11.3 | 0.00 | 0.00 | 0.00 | 69 | 1011.6 |
| 20260507091019 | 13 | 72 | 4.8 | 8.0 | 0.00 | 0.00 | 0.00 | 71 | 1011.7 |
| 20260507090519 | 13 | 77 | 3.2 | 4.8 | 0.00 | 0.00 | 0.00 | 72 | 1011.6 |
| 20260507090020 | 12 | 165 | 3.2 | 8.0 | 0.00 | 0.00 | 0.00 | 71 | 1011.7 |
| 20260507085519 | 12 | 82 | 0.0 | 3.2 | 0.00 | 0.00 | 0.00 | 73 | 1011.7 |
| 20260507084508 | 12 | 111 | 3.2 | 4.8 | 0.00 | 0.00 | 0.00 | 73 | 1011.7 |
| 20260507084019 | 12 | 139 | 0.0 | 0.0 | 0.00 | 0.00 | 0.00 | 74 | 1011.7 |
| 20260507083519 | 12 | 127 | 1.6 | 4.8 | 0.00 | 0.00 | 0.00 | 73 | 1011.7 |
| 20260507082518 | 13 | 77 | 4.8 | 12.9 | 0.00 | 0.00 | 0.00 | 71 | 1011.6 |
| 20260507082018 | 13 | 108 | 3.2 | 12.9 | 0.00 | 0.00 | 0.00 | 70 | 1011.6 |
| 20260507081519 | 13 | 86 | 6.4 | 12.9 | 0.00 | 0.00 | 0.00 | 70 | 1011.4 |
| 20260507081019 | 12 | 8 | 4.8 | 12.9 | 0.00 | 0.00 | 0.00 | 71 | 1011.5 |
| 20260507080019 | 12 | 30 | 6.4 | 9.7 | 0.00 | 0.00 | 0.00 | 72 | 1011.6 |
| 20260507075018 | 12 | 38 | 4.8 | 9.7 | 0.00 | 0.00 | 0.00 | 73 | 1011.6 |
| 20260507074519 | 12 | 23 | 4.8 | 11.3 | 0.00 | 0.00 | 0.00 | 73 | 1011.6 |
| 20260507074018 | 12 | 31 | 3.2 | 8.0 | 0.00 | 0.00 | 0.00 | 74 | 1011.6 |
| 20260507073019 | 12 | 66 | 8.0 | 12.9 | 0.00 | 0.00 | 0.00 | 73 | 1011.6 |
| 20260507072519 | 12 | 38 | 6.4 | 14.5 | 0.00 | 0.00 | 0.00 | 73 | 1011.6 |
| 20260507071519 | 12 | 48 | 8.0 | 14.5 | 0.00 | 0.00 | 0.00 | 73 | 1011.7 |
| 20260507071019 | 12 | 69 | 6.4 | 14.5 | 0.00 | 0.00 | 0.00 | 74 | 1011.6 |
| 20260507070519 | 12 | 69 | 4.8 | 9.7 | 0.00 | 0.00 | 0.00 | 74 | 1011.6 |
| 20260507070011 | 11 | 55 | 4.8 | 11.3 | 0.00 | 0.00 | 0.00 | 75 | 1011.5 |
| 20260507065519 | 11 | 57 | 4.8 | 11.3 | 0.00 | 0.00 | 0.00 | 76 | 1011.5 |
| 20260507065018 | 11 | 50 | 3.2 | 4.8 | 0.00 | 0.00 | 0.00 | 77 | 1011.3 |
| 20260507064519 | 11 | 29 | 6.4 | 14.5 | 0.00 | 0.00 | 0.00 | 77 | 1011.4 |
| 20260507063519 | 10 | 28 | 3.2 | 9.7 | 0.00 | 0.00 | 0.00 | 78 | 1011.2 |
| 20260507063019 | 10 | 37 | 3.2 | 8.0 | 0.00 | 0.00 | 0.00 | 78 | 1011.2 |
| 20260507062519 | 10 | 43 | 3.2 | 9.7 | 0.00 | 0.00 | 0.00 | 78 | 1011.2 |
| 20260507062007 | 10 | 34 | 4.8 | 12.9 | 0.00 | 0.00 | 0.00 | 78 | 1011.1 |
| 20260507061519 | 10 | 45 | 3.2 | 9.7 | 0.00 | 0.00 | 0.00 | 78 | 1011.1 |
| 20260507060519 | 10 | 56 | 8.0 | 14.5 | 0.00 | 0.00 | 0.00 | 77 | 1011.0 |
| 20260507060019 | 10 | 37 | 4.8 | 12.9 | 0.00 | 0.00 | 0.00 | 78 | 1010.9 |
| 20260507055519 | 10 | 41 | 6.4 | 14.5 | 0.00 | 0.00 | 0.00 | 78 | 1010.9 |
| 20260507054519 | 10 | 40 | 8.0 | 16.1 | 0.00 | 0.00 | 0.00 | 78 | 1010.9 |
| 20260507054018 | 10 | 31 | 9.7 | 19.3 | 0.00 | 0.00 | 0.00 | 79 | 1010.9 |
| 20260507053518 | 10 | 29 | 8.0 | 14.5 | 0.00 | 0.00 | 0.00 | 79 | 1010.9 |
| 20260507053019 | 10 | 26 | 9.7 | 19.3 | 0.00 | 0.00 | 0.00 | 79 | 1010.9 |
| 20260507052519 | 9 | 26 | 8.0 | 14.5 | 0.00 | 0.00 | 0.00 | 80 | 1010.9 |
| 20260507052019 | 9 | 27 | 8.0 | 19.3 | 0.00 | 0.00 | 0.00 | 80 | 1010.9 |
| 20260507051519 | 9 | 33 | 8.0 | 16.1 | 0.00 | 0.00 | 0.00 | 80 | 1010.9 |
| 20260507051020 | 9 | 12 | 8.0 | 14.5 | 0.00 | 0.00 | 0.00 | 80 | 1011.0 |
| 20260507050519 | 9 | 16 | 8.0 | 12.9 | 0.00 | 0.00 | 0.00 | 80 | 1011.0 |
| 20260507050019 | 9 | 25 | 8.0 | 14.5 | 0.00 | 0.00 | 0.00 | 80 | 1011.0 |
| 20260507045018 | 9 | 30 | 8.0 | 16.1 | 0.00 | 0.00 | 0.00 | 81 | 1010.8 |
| 20260507044518 | 9 | 12 | 8.0 | 14.5 | 0.00 | 0.00 | 0.00 | 80 | 1010.8 |
| 20260507044018 | 9 | 12 | 4.8 | 11.3 | 0.00 | 0.00 | 0.00 | 80 | 1010.9 |
| 20260507043518 | 9 | 14 | 6.4 | 12.9 | 0.00 | 0.00 | 0.00 | 80 | 1010.9 |
| 20260507043019 | 9 | 8 | 4.8 | 11.3 | 0.00 | 0.00 | 0.00 | 80 | 1011.0 |
| 20260507042518 | 9 | 3 | 4.8 | 12.9 | 0.00 | 0.00 | 0.00 | 81 | 1010.8 |
| 20260507041518 | 9 | 10 | 4.8 | 11.3 | 0.00 | 0.00 | 0.00 | 80 | 1010.9 |
| 20260507041018 | 9 | 10 | 8.0 | 12.9 | 0.00 | 0.00 | 0.00 | 80 | 1011.0 |
| 20260507040019 | 9 | 10 | 8.0 | 14.5 | 0.00 | 0.00 | 0.00 | 79 | 1011.0 |
| 20260507035519 | 9 | 6 | 4.8 | 11.3 | 0.00 | 0.00 | 0.00 | 79 | 1011.1 |
| 20260507035008 | 9 | 15 | 4.8 | 9.7 | 0.00 | 0.00 | 0.00 | 79 | 1011.1 |
| 20260507034519 | 9 | 21 | 4.8 | 12.9 | 0.00 | 0.00 | 0.00 | 79 | 1011.0 |
| 20260507034019 | 9 | 18 | 4.8 | 11.3 | 0.00 | 0.00 | 0.00 | 79 | 1011.0 |
| 20260507033519 | 9 | 29 | 4.8 | 12.9 | 0.00 | 0.00 | 0.00 | 79 | 1010.9 |
| 20260507033019 | 9 | 17 | 8.0 | 14.5 | 0.00 | 0.00 | 0.00 | 79 | 1011.0 |
| 20260507032519 | 9 | 12 | 8.0 | 14.5 | 0.00 | 0.00 | 0.00 | 78 | 1011.0 |
| 20260507032019 | 9 | 13 | 8.0 | 12.9 | 0.00 | 0.00 | 0.00 | 79 | 1011.0 |
| 20260507031519 | 9 | 19 | 6.4 | 14.5 | 0.00 | 0.00 | 0.00 | 79 | 1011.0 |
| 20260507031019 | 9 | 16 | 8.0 | 16.1 | 0.00 | 0.00 | 0.00 | 79 | 1011.0 |
| 20260507030519 | 9 | 8 | 9.7 | 14.5 | 0.00 | 0.00 | 0.00 | 79 | 1010.9 |
| 20260507025518 | 9 | 0 | 8.0 | 12.9 | 0.00 | 0.00 | 0.00 | 80 | 1011.0 |
| 20260507024519 | 9 | 11 | 3.2 | 8.0 | 0.00 | 0.00 | 0.00 | 80 | 1010.9 |
| 20260507024019 | 9 | 3 | 6.4 | 9.7 | 0.00 | 0.00 | 0.00 | 79 | 1010.9 |
| 20260507023519 | 9 | 0 | 4.8 | 8.0 | 0.00 | 0.00 | 0.00 | 79 | 1010.8 |
| 20260507023019 | 9 | 351 | 4.8 | 9.7 | 0.00 | 0.00 | 0.00 | 79 | 1010.9 |
| 20260507022019 | 8 | 0 | 6.4 | 11.3 | 0.00 | 0.00 | 0.00 | 79 | 1011.0 |
| 20260507021018 | 9 | 351 | 6.4 | 11.3 | 0.00 | 0.00 | 0.00 | 78 | 1011.0 |
| 20260507020518 | 9 | 1 | 8.0 | 11.3 | 0.00 | 0.00 | 0.00 | 78 | 1011.0 |
| 20260507020019 | 9 | 0 | 3.2 | 4.8 | 0.00 | 0.00 | 0.00 | 77 | 1011.0 |
| 20260507015518 | 9 | 351 | 4.8 | 9.7 | 0.00 | 0.00 | 0.00 | 77 | 1011.0 |
| 20260507015018 | 9 | 2 | 3.2 | 4.8 | 0.00 | 0.00 | 0.00 | 77 | 1010.9 |
| 20260507014019 | 9 | 5 | 1.6 | 4.8 | 0.00 | 0.00 | 0.00 | 76 | 1011.0 |
| 20260507013519 | 10 | 6 | 3.2 | 4.8 | 0.00 | 0.00 | 0.00 | 74 | 1011.0 |
| 20260507013018 | 10 | 16 | 0.0 | 0.0 | 0.00 | 0.00 | 0.00 | 73 | 1011.1 |
| 20260507012507 | 10 | 16 | 1.6 | 4.8 | 0.00 | 0.00 | 0.00 | 72 | 1011.1 |
| 20260507012018 | 10 | 14 | 3.2 | 4.8 | 0.00 | 0.00 | 0.00 | 71 | 1011.0 |
| 20260507011519 | 10 | 27 | 3.2 | 4.8 | 0.00 | 0.00 | 0.00 | 71 | 1011.0 |
| 20260507011008 | 10 | 27 | 3.2 | 8.0 | 0.00 | 0.00 | 0.00 | 70 | 1010.9 |
| 20260507010520 | 10 | 26 | 3.2 | 9.7 | 0.00 | 0.00 | 0.00 | 70 | 1011.0 |
| 20260507010007 | 10 | 36 | 1.6 | 4.8 | 0.00 | 0.00 | 0.00 | 69 | 1011.0 |
| 20260507005507 | 11 | 21 | 1.6 | 4.8 | 0.00 | 0.00 | 0.00 | 68 | 1011.1 |
| 20260507005007 | 11 | 30 | 3.2 | 4.8 | 0.00 | 0.00 | 0.00 | 68 | 1011.1 |
| 20260507004507 | 11 | 46 | 3.2 | 9.7 | 0.00 | 0.00 | 0.00 | 67 | 1011.1 |
| 20260507004007 | 11 | 46 | 4.8 | 9.7 | 0.00 | 0.00 | 0.00 | 67 | 1011.1 |
| 20260507003507 | 11 | 51 | 6.4 | 14.5 | 0.00 | 0.00 | 0.00 | 67 | 1011.2 |
| 20260507003007 | 11 | 47 | 8.0 | 16.1 | 0.00 | 0.00 | 0.00 | 66 | 1011.1 |
| 20260507002507 | 11 | 63 | 8.0 | 14.5 | 0.00 | 0.00 | 0.00 | 67 | 1011.3 |
| 20260507002007 | 11 | 57 | 4.8 | 14.5 | 0.00 | 0.00 | 0.00 | 66 | 1011.3 |
| 20260507001508 | 11 | 45 | 8.0 | 16.1 | 0.00 | 0.00 | 0.00 | 66 | 1011.3 |
| 20260507001008 | 11 | 30 | 8.0 | 19.3 | 0.00 | 0.00 | 0.00 | 66 | 1011.2 |
| 20260507000508 | 11 | 53 | 8.0 | 14.5 | 0.00 | 0.00 | 0.00 | 66 | 1011.2 |
| 20260506235510 | 11 | 56 | 11.3 | 19.3 | 0.00 | 0.00 | 0.00 | 65 | 1011.2 |
| 20260506235007 | 11 | 55 | 9.7 | 19.3 | 0.00 | 0.00 | 0.00 | 64 | 1011.0 |
| 20260506234507 | 11 | 45 | 11.3 | 24.1 | 0.00 | 0.00 | 0.00 | 64 | 1010.9 |
| 20260506234007 | 11 | 31 | 9.7 | 16.1 | 0.00 | 0.00 | 0.00 | 64 | 1010.8 |
| 20260506233507 | 11 | 29 | 9.7 | 20.9 | 0.00 | 0.00 | 0.00 | 64 | 1010.9 |
| 20260506233007 | 11 | 35 | 8.0 | 19.3 | 0.00 | 0.00 | 0.00 | 63 | 1010.9 |
| 20260506232507 | 11 | 34 | 8.0 | 19.3 | 0.00 | 0.00 | 0.00 | 63 | 1010.9 |
| 20260506232007 | 11 | 35 | 8.0 | 19.3 | 0.00 | 0.00 | 0.00 | 62 | 1010.9 |
| 20260506231508 | 11 | 36 | 9.7 | 19.3 | 0.00 | 0.00 | 0.00 | 63 | 1010.9 |
| 20260506230508 | 10 | 37 | 3.2 | 9.7 | 0.00 | 0.00 | 0.00 | 65 | 1010.9 |
| 20260506230007 | 10 | 11 | 3.2 | 9.7 | 0.00 | 0.00 | 0.00 | 65 | 1010.9 |
| 20260506225507 | 10 | 355 | 8.0 | 9.7 | 0.00 | 0.00 | 0.00 | 63 | 1011.0 |
| 20260506225007 | 10 | 356 | 8.0 | 11.3 | 0.00 | 0.00 | 0.00 | 62 | 1011.0 |
| 20260506224507 | 10 | 352 | 8.0 | 12.9 | 0.00 | 0.00 | 0.00 | 60 | 1010.9 |